Parsons, KS

2:33 AM CDT on October 15, 2019 (GMT -0500)
Tri-City

Weather History for KPPF - September, 2019

Change the Weather History Date:

Monday, September 23, 2019

  Actual Average Record
Temperature  
Mean Temperature 72 °F -  
Max Temperature 84 °F 78 °F 91 °F (2017)
Min Temperature 61 °F 53 °F 30 °F (1983)
Cooling Degree Days 8    
Growing Degree Days 22 (Base 50)    
Moisture  
Dew Point 62 °F    
Average Humidity 79    
Maximum Humidity 100    
Minimum Humidity 44    
Precipitation  
Precipitation 0.00 in - - ()
Sea Level Pressure  
Sea Level Pressure 30.05 in    
Wind  
Wind Speed 2 mph ()    
Max Wind Speed 7 mph    
Max Gust Speed -    
Visibility 9.6 miles    
Events      
Averages and records for this station are not official NWS values.
T = Trace of Precipitation, MM = Missing Value Source: Averaged Metar Reports

Daily Weather History Graph

Daily Weather History Graph

Search for Another Location

Airport or City:

Astronomy

Sep. 23, 2019 Rise Set
Actual Time 7:10 AM CDT 7:17 PM CDT
Civil Twilight 6:44 AM CDT 7:43 PM CDT
Nautical Twilight 6:14 AM CDT 8:14 PM CDT
Astronomical Twilight 5:43 AM CDT 8:44 PM CDT
Moon 1:02 AM CDT (9/23) 4:04 PM CDT (9/23)
Length of Visible Light 12h 59m
Length of Day
12h 07m
Waning Crescent, 33% of the Moon is Illuminated
Sep 23
Waning Crescent
Sep 28
New
Oct 5
First Quarter
Oct 13
Full
Oct 21
Last Quarter

Hourly Weather History & Observations

Time (CDT) Temp. Heat Index Dew Point Humidity Pressure Visibility Wind Dir Wind Speed Gust Speed Precip Events Conditions
12:52 AM 66.9 °F - 64.9 °F 93% 30.04 in 10.0 mi NNE 3.5 mph - N/A   Mostly Cloudy
1:52 AM 64.9 °F - 64.0 °F 97% 30.05 in 10.0 mi NNE 4.6 mph - N/A   Partly Cloudy
2:52 AM 64.0 °F - 63.0 °F 96% 30.05 in 10.0 mi North 3.5 mph - N/A   Scattered Clouds
3:52 AM 63.0 °F - 62.1 °F 97% 30.05 in 10.0 mi Calm Calm - N/A   Clear
4:52 AM 62.1 °F - 61.0 °F 96% 30.06 in 10.0 mi Calm Calm - N/A   Clear
5:52 AM 61.0 °F - 61.0 °F 100% 30.06 in 10.0 mi Calm Calm - N/A   Clear
6:52 AM 61.0 °F - 60.1 °F 97% 30.07 in 5.0 mi Calm Calm - N/A   Clear
7:52 AM 61.0 °F - 61.0 °F 100% 30.09 in 6.0 mi Calm Calm - N/A   Clear
8:52 AM 66.0 °F - 64.0 °F 93% 30.09 in 10.0 mi Variable 3.5 mph - N/A   Clear
9:52 AM 71.1 °F - 64.9 °F 81% 30.10 in 10.0 mi Variable 3.5 mph - N/A   Clear
10:52 AM 75.0 °F - 64.9 °F 71% 30.11 in 10.0 mi ESE 6.9 mph - N/A   Clear
11:52 AM 75.9 °F - 66.0 °F 71% 30.11 in 10.0 mi Variable 3.5 mph - N/A   Clear
12:52 PM 79.0 °F - 64.9 °F 62% 30.09 in 10.0 mi North - - N/A   Clear
2:52 PM 82.0 °F 83.0 °F 62.1 °F 51% 30.05 in 10.0 mi Variable 5.8 mph - N/A   Clear
3:52 PM 84.0 °F 84.5 °F 62.1 °F 47% 30.03 in 10.0 mi Variable 3.5 mph - N/A   Clear
4:52 PM 82.9 °F 82.8 °F 59.0 °F 44% 30.02 in 10.0 mi Variable 4.6 mph - N/A   Clear
5:52 PM 82.0 °F 82.7 °F 61.0 °F 49% 30.02 in 10.0 mi Variable 3.5 mph - N/A   Clear
6:52 PM 75.9 °F - 66.0 °F 71% 30.01 in 10.0 mi Calm Calm - N/A   Clear
7:52 PM 66.0 °F - 64.0 °F 93% 30.01 in 10.0 mi Calm Calm - N/A   Clear
8:52 PM 66.9 °F - 62.1 °F 84% 30.01 in 10.0 mi Calm Calm - N/A   Clear
9:52 PM 66.0 °F - 61.0 °F 84% 30.01 in 10.0 mi Calm Calm - N/A   Clear
10:52 PM 66.9 °F - 59.0 °F 76% 30.01 in 10.0 mi Calm Calm - N/A   Clear
11:52 PM 70.0 °F - 57.0 °F 63% 30.00 in 10.0 mi SE 4.6 mph - N/A   Partly Cloudy